Tracking 29777 objects as of 4-Oct-2024
HD Live streaming from Space Station
objects crossing your sky now

ARIANE 5 R/B

Track ARIANE 5 R/B now!
10-day predictions


NORAD ID: 39218
Int'l Code: 2013-038D
Perigee: 219.0 km
Apogee: 27,501.1 km
Inclination: 3.1 °
Period: 477.3 minutes
Semi major axis: 20231 km
RCS: Unknown
Launch date: July 25, 2013
Source: France (FR)
Launch site: FRENCH GUIANA (FRGUI)

Note: This is a ROCKET BODY
Your satellite tracking list
Your tracking list is empty




NASA's NSSDC Master Catalog

Two Line Element Set (TLE):
1 39218U 13038D   24278.00052998  .00014992  00000-0  11331-2 0  9990
2 39218   3.0636 241.4714 6742644 182.6723 169.7472  3.01700033105579
Source of the keplerian elements: AFSPC